Tracking 18945 objects as of 19-Jan-2018
HD Live streaming from Space Station
objects crossing your sky now

SL-12 R/B(2)

Track SL-12 R/B(2) now!
10-day predictions
SL-12 R/B(2) is classified as:


NORAD ID: 15772
Int'l Code: 1985-042D
Perigee: 804.4 km
Apogee: 852.4 km
Inclination: 71.1 °
Period: 101.3 minutes
Semi major axis: 7199 km
RCS: 14.3806 m2 (large)
Launch date: May 30, 1985
Source: Commonwealth of Independent States (former USSR) (CIS)
Launch site: TYURATAM MISSILE AND SPACE COMPLEX (TTMTR)

Note: This is a ROCKET BODY
aabbcc
Your satellite tracking list
Your tracking list is empty




NASA's NSSDC Master Catalog

Two Line Element Set (TLE):
1 15772U 85042D   18018.63946113 +.00000019 +00000-0 +30468-4 0  9997
2 15772 071.1065 241.1025 0033362 066.7883 324.5885 14.21219725692066
Source of the keplerian elements: AFSPC